User: anonymous   Login
Location: Frizzleburg
(41.0764°N, 80.4548°W)
Time: 10:29:00
(UTC+00:00)
Language:

Shenzhou-11 Module - Orbit

View from above orbital plane
View from above orbital plane
View from above satellite
View from above satellite

Ground track
Ground track

The orbit data is extracted from the following two-line orbital elements,

1 41868U 16061G   20022.59649060 +.00017587 +00000-0 +65521-4 0  9997
2 41868 042.7921 335.5360 0010158 175.0102 353.8764 15.87608287182650
Epoch (UTC): 22 January 2020 14:18:56
Eccentricity: 0.0010158
inclination: 42.7921°
perigee height: 302 km
apogee height: 316 km
right ascension of ascending node: 335.5360°
argument of perigee: 175.0102°
revolutions per day: 15.87608287
mean anomaly at epoch: 353.8764°
orbit number at epoch: 18265

The dashed part of the orbit path shows where the satellite is in the earth's shadow,  

DLR